Radioactive Concentration measured by Seawater Radiation Monitor near Fukushima Daiichi Nuclear Power Station
Date,Time,Cs137(Bq/L),Cs134(Bq/L),Total β(Bq/L)
2016/11/25,00:00,0.95,0.099,9.7
2016/11/25,00:10,0.94,0.089,ND
2016/11/25,00:20,0.93,0.092,ND
2016/11/25,00:30,0.90,0.11,ND
2016/11/25,00:40,0.90,0.11,ND
2016/11/25,00:50,0.86,0.12,ND
2016/11/25,01:00,0.82,0.12,ND
2016/11/25,01:10,0.79,0.13,ND
2016/11/25,01:20,0.82,0.11,ND
2016/11/25,01:30,0.83,0.097,ND
2016/11/25,01:40,0.84,0.087,ND
2016/11/25,01:50,0.85,0.081,ND
2016/11/25,02:00,0.89,0.069,ND
2016/11/25,02:10,0.89,0.069,ND
2016/11/25,02:20,0.88,0.076,ND
2016/11/25,02:30,0.87,0.082,ND
2016/11/25,02:40,0.90,0.078,ND
2016/11/25,02:50,0.92,0.083,ND
2016/11/25,03:00,0.94,0.092,ND
2016/11/25,03:10,0.95,0.093,ND
2016/11/25,03:20,0.96,0.089,ND
2016/11/25,03:30,0.96,0.093,ND
2016/11/25,03:40,0.97,0.093,ND
2016/11/25,03:50,0.98,0.096,ND
2016/11/25,04:00,0.99,0.096,ND
2016/11/25,04:10,1.0,0.10,9.0
2016/11/25,04:20,1.0,0.11,10
2016/11/25,04:30,1.0,0.11,9.7
2016/11/25,04:40,1.0,0.11,9.3
2016/11/25,04:50,0.99,0.11,9.6
2016/11/25,05:00,0.97,0.11,ND
2016/11/25,05:10,1.0,0.11,ND
2016/11/25,05:20,1.1,0.10,ND
2016/11/25,05:30,1.1,0.11,ND
2016/11/25,05:40,1.1,0.12,ND
2016/11/25,05:50,1.2,0.13,ND
2016/11/25,06:00,1.2,0.13,ND
2016/11/25,06:10,1.1,0.14,9.0
2016/11/25,06:20,1.1,0.14,10
2016/11/25,06:30,1.1,0.14,ND
2016/11/25,06:40,1.0,0.15,ND
2016/11/25,06:50,1.0,0.13,ND
2016/11/25,07:00,1.1,0.11,ND
2016/11/25,07:10,1.1,0.10,ND
2016/11/25,07:20,1.1,0.11,ND
2016/11/25,07:30,1.1,0.11,ND
2016/11/25,07:40,1.1,0.10,ND
2016/11/25,07:50,1.0,0.10,ND
2016/11/25,08:00,1.0,0.10,ND
2016/11/25,08:10,0.97,0.12,ND
2016/11/25,08:20,0.94,0.12,ND
2016/11/25,08:30,0.93,0.12,ND
2016/11/25,08:40,0.91,0.12,ND
2016/11/25,08:50,0.90,0.12,ND
2016/11/25,09:00,0.88,0.14,ND
2016/11/25,09:10,0.92,0.12,ND
2016/11/25,09:20,0.95,0.11,ND
2016/11/25,09:30,0.93,0.11,ND
2016/11/25,09:40,0.94,0.10,9.3
2016/11/25,09:50,0.93,0.096,ND
2016/11/25,10:00,0.94,0.087,ND
2016/11/25,10:10,0.90,0.083,ND
2016/11/25,10:20,0.87,0.092,ND
2016/11/25,10:30,0.84,0.096,ND
2016/11/25,10:40,0.81,0.090,ND
2016/11/25,10:50,0.79,0.083,ND
2016/11/25,11:00,0.74,0.079,ND
2016/11/25,11:10,0.73,0.083,ND
2016/11/25,11:20,0.72,0.074,ND
2016/11/25,11:30,0.75,0.060,ND
2016/11/25,11:40,0.76,0.062,ND
2016/11/25,11:50,0.77,0.053,ND
2016/11/25,12:00,0.74,0.060,ND
2016/11/25,12:10,0.69,0.058,ND
2016/11/25,12:20,0.75,0.049,ND
2016/11/25,12:30,0.79,ND,ND
2016/11/25,12:40,0.74,0.037,ND
2016/11/25,12:50,0.74,0.045,ND
2016/11/25,13:00,0.76,0.041,ND
2016/11/25,13:10,0.78,0.040,ND
2016/11/25,13:20,0.76,0.047,9.3
2016/11/25,13:30,0.72,0.074,10
2016/11/25,13:40,0.73,0.065,12
2016/11/25,13:50,0.71,0.055,13
2016/11/25,14:00,0.70,0.058,11
2016/11/25,14:10,0.68,0.057,ND
2016/11/25,14:20,0.70,0.056,ND
2016/11/25,14:30,0.72,0.063,ND
2016/11/25,14:40,0.73,0.069,ND
2016/11/25,14:50,0.68,0.084,ND
2016/11/25,15:00,0.69,0.085,ND
2016/11/25,15:10,0.70,0.087,ND
2016/11/25,15:20,0.73,0.091,ND
2016/11/25,15:30,0.75,0.089,ND
2016/11/25,15:40,0.74,0.091,ND
2016/11/25,15:50,0.75,0.095,ND
2016/11/25,16:00,0.78,0.091,ND
2016/11/25,16:10,0.88,0.063,ND
2016/11/25,16:20,0.86,0.053,ND
2016/11/25,16:30,0.82,0.080,ND
2016/11/25,16:40,0.89,0.061,ND
2016/11/25,16:50,0.88,0.082,ND
2016/11/25,17:00,0.88,0.088,ND
2016/11/25,17:10,0.94,0.084,ND
2016/11/25,17:20,0.95,0.097,ND
2016/11/25,17:30,0.84,0.12,ND
2016/11/25,17:40,0.84,0.11,ND
2016/11/25,17:50,0.81,0.11,ND
2016/11/25,18:00,0.82,0.12,ND
2016/11/25,18:10,0.77,0.12,ND
2016/11/25,18:20,0.77,0.12,ND
2016/11/25,18:30,0.77,0.12,ND
2016/11/25,18:40,0.75,0.11,ND
2016/11/25,18:50,0.85,0.062,ND
2016/11/25,19:00,0.82,0.061,ND
2016/11/25,19:10,0.82,0.052,ND
2016/11/25,19:20,0.81,0.054,ND
2016/11/25,19:30,0.76,0.074,ND
2016/11/25,19:40,0.76,0.076,ND
2016/11/25,19:50,0.77,0.071,ND
2016/11/25,20:00,0.81,0.042,ND
2016/11/25,20:10,0.74,0.069,ND
2016/11/25,20:20,0.74,0.074,ND
2016/11/25,20:30,0.76,0.063,ND
2016/11/25,20:40,0.73,0.065,ND
2016/11/25,20:50,0.72,0.071,ND
2016/11/25,21:00,0.63,0.091,ND
2016/11/25,21:10,0.65,0.087,ND
2016/11/25,21:20,0.65,0.085,ND
2016/11/25,21:30,0.62,0.094,ND
2016/11/25,21:40,0.62,0.10,ND
2016/11/25,21:50,0.64,0.091,ND
2016/11/25,22:00,0.66,0.076,ND
2016/11/25,22:10,0.66,0.075,ND
2016/11/25,22:20,0.76,0.047,ND
2016/11/25,22:30,0.79,0.037,ND
2016/11/25,22:40,0.80,0.039,ND
2016/11/25,22:50,0.68,0.075,ND
2016/11/25,23:00,0.68,0.075,ND
2016/11/25,23:10,0.66,0.078,ND
2016/11/25,23:20,0.66,0.079,ND
2016/11/25,23:30,0.63,0.091,ND
2016/11/25,23:40,0.60,0.081,ND
2016/11/25,23:50,0.59,0.086,ND
